Terug naar catalogus

COSMOS 1934 DEB

ActiefPO
NORAD 21912·DEBRIS·🇷🇺 Russia

Gelanceerd Mar 22, 1988 vanaf Plesetsk Cosmodrome

Loading…

Volgende Passages (komende 24 uur)

TLE

VersSource: Space-Track

Epoch: Sep 14, 2026, 18:40 UTC

1 21912U 88023C   26257.77846113  .00000369  00000-0  30801-3 0  9998
2 21912  82.9585  16.5905 0036466 321.2574 202.1283 13.85654864814134

Volg COSMOS 1934 DEB in realtime met AllMySat

Download on the App Store